DECAYED

OBJECT G, 51830 (Decayed)

Orbit data source: Space-Track

You're viewing an Uncataloged Satellite

Recently launched and/or uncataloged satellites may have evolving metadata. Metadata may include but not limited to: Owner, Maufacturer, Bus, Motor, and Mission.

OBJECT G, 51830 was a satellite owned by Guodian Gaokeji (CN) in LEO that was launched on Sun, 27 Feb 2022 UTC via a CHANG ZHENG 8 launch vehicle from the Wenchang Satellite Launch Center (WSC). Unknown objects in Earth's orbit typically refer to objects detected orbiting the Earth but have not yet been identified or cataloged. These objects could be anything from previously untracked satellites, spent rocket stages, debris from satellite collisions, or even natural meteoroids temporarily captured by Earth's gravity. This object's orbit decayed before it could be identified.

Not visible in the next 10 days
OBJECT G details
Identifier
51830, 2022-019G
Orbit
Decayed
Last TLE update4 months ago
Origin
Flag of CNGuodian Gaokeji (CN / PRC)
ManufacturerShanghai ASES
MissionDecayed Commercial Communications
Bus & MotorSTARLIGHTB, Unknown motor
Mass39 kg wet, 39 kg dry
Launch date (UTC)
2022-02-27 (3 years ago)
Launch vehicle
CHANG ZHENG 8
Launch site
Wenchang Satellite Launch Center (WSC)
Object typeUnknown
Shape & HBRBox, 0.5 m
Radar Cross Section0.195 m², Medium (>0.1 m² and < 1m²)

Expand to show TLE details & history

TLE from 4 months ago
0 OBJECT G
1 51830U 22019G   24257.48177505  .14461052  25176-5  17193-2 0  9990
2 51830  97.3866 343.0159 0014166 275.8825  84.0858 16.36270832141678
Epoch: 2024-09-13T11:33Z
Definitive object data (Epoch: 2024-09-13T11:33:45.364Z)
Latitude0.00003°
Longitude176.62366°
Altitude178.044 km
Speed7.8 km/s
True Right ascension22h 52m 03s
True Declination0° 00' 00"
Sunlit
Object was in full shadow at TLE epoch
Visualization observer readout
Observer readout values are unavailable because the object's trajectory could not be propagated. This is usually caused when the trajectory data is faulty or the object's orbit has decayed.
Visualization observer readout
Observer readout values are unavailable because the object's trajectory could not be propagated. This is usually caused when the trajectory data is faulty or the object's orbit has decayed.
Orbital elements
Apogee altitude181.833 km
Perigee altitude163.274 km
Semi-major axis6,550.69 km
Eccentricity0.0014166
Inclination97.3866°
RAAN343.0159°
Arg. of periapsis275.8825°
True anomaly84.2473°
Mean anomaly84.0858°
Eccentric anomaly84.16654°
Mean motion4.09367 °/min
BSTAR0.0017193
Orbital period87.94 mins
Loading maneuver chart data...
Loading historical data...
Loading historical data...
Loading historical data...
Loading historical data...
Loading historical data...
Loading historical data...
Loading historical data...

OBJECT G Visibility forecast

Observer location: undefined°, undefined

This satellite is decayed
Span
Click to sort rows by Start time (UTC) header in descending order
Start Az.
Max El. time (UTC)
Max El. Az.
Max El.
End time (UTC)
End Az.
|